When you browse on this site, cookies collect data to enhance your experience and personalize the content and advertising you see.
Visit our Privacy Policy to learn more. By continuing to use the site, you agree to this use of cookies and data.
  • In Hungary
  • List of Countries
  • For 7 days
  • Water Temperature
  • Satellite Maps
  • Weather Map
  • News
  • Weather Widgets
  • user-avatar
    Login

    Hourly Weather Cadiz

    Today, 13 December, Thursday

    Time Temperature Precipitation Wind Pressure Humidity
    00:00 +15°C° 0 mm 4 mps 765 mmHg 84%
    01:00 +15°C° 0.1 mm 4 mps 765 mmHg 84%
    02:00 +15°C° 0.1 mm 5 mps 765 mmHg 84%
    03:00 +15°C° 0.1 mm 6 mps 764 mmHg 84%
    04:00 +15°C° 0.5 mm 7 mps 764 mmHg 85%
    05:00 +15°C° 0.5 mm 8 mps 763 mmHg 86%
    06:00 +15°C° 0.5 mm 9 mps 762 mmHg 87%
    07:00 +14°C° 1.5 mm 11 mps 762 mmHg 86%
    08:00 +15°C° 1.5 mm 12 mps 762 mmHg 85%
    09:00 +15°C° 1.5 mm 13 mps 762 mmHg 83%
    10:00 +14°C° 0.8 mm 12 mps 762 mmHg 75%
    11:00 +14°C° 0.8 mm 12 mps 763 mmHg 67%
    12:00 +13°C° 0.8 mm 11 mps 763 mmHg 59%
    13:00 +14°C° 0 mm 10 mps 763 mmHg 56%
    14:00 +15°C° 0 mm 9 mps 763 mmHg 53%
    15:00 +15°C° 0 mm 9 mps 763 mmHg 50%
    16:00 +13°C° 0 mm 8 mps 764 mmHg 53%
    17:00 +12°C° 0 mm 8 mps 764 mmHg 57%
    18:00 +12°C° 0 mm 7 mps 765 mmHg 60%
    19:00 +11°C° 0 mm 7 mps 766 mmHg 61%
    20:00 +11°C° 0 mm 7 mps 766 mmHg 63%
    21:00 +10°C° 0 mm 7 mps 767 mmHg 65%
    22:00 +10°C° 0 mm 7 mps 767 mmHg 66%
    23:00 +10°C° 0 mm 6 mps 767 mmHg 68%

    Tomorrow, 14 December, Friday

    Time Temperature Precipitation Wind Pressure Humidity
    00:00 +9°C° 0 mm 6 mps 767 mmHg 70%
    01:00 +9°C° 0 mm 6 mps 767 mmHg 71%
    02:00 +9°C° 0 mm 6 mps 767 mmHg 73%
    03:00 +8°C° 0 mm 6 mps 767 mmHg 74%
    04:00 +8°C° 0 mm 6 mps 767 mmHg 76%
    05:00 +8°C° 0 mm 6 mps 768 mmHg 77%
    06:00 +8°C° 0 mm 6 mps 768 mmHg 78%
    07:00 +8°C° 0 mm 6 mps 768 mmHg 76%
    08:00 +9°C° 0 mm 5 mps 769 mmHg 75%
    09:00 +9°C° 0 mm 5 mps 770 mmHg 73%
    10:00 +12°C° 0 mm 5 mps 770 mmHg 68%
    11:00 +13°C° 0 mm 4 mps 770 mmHg 62%
    12:00 +14°C° 0 mm 4 mps 770 mmHg 56%
    13:00 +14°C° 0 mm 4 mps 770 mmHg 55%
    14:00 +14°C° 0 mm 4 mps 769 mmHg 53%
    15:00 +15°C° 0 mm 4 mps 769 mmHg 52%
    16:00 +14°C° 0 mm 4 mps 769 mmHg 56%
    17:00 +13°C° 0 mm 4 mps 769 mmHg 60%
    18:00 +12°C° 0 mm 3 mps 770 mmHg 64%
    19:00 +12°C° 0 mm 3 mps 770 mmHg 66%
    20:00 +11°C° 0 mm 3 mps 770 mmHg 67%
    21:00 +11°C° 0 mm 3 mps 771 mmHg 68%
    22:00 +11°C° 0 mm 3 mps 771 mmHg 69%
    23:00 +11°C° 0 mm 3 mps 771 mmHg 69%

    Day after tomorrow, 15 December, Saturday

    Time Temperature Precipitation Wind Pressure Humidity
    00:00 +10°C° 0 mm 4 mps 771 mmHg 70%
    01:00 +10°C° 0 mm 3 mps 771 mmHg 70%
    02:00 +10°C° 0 mm 3 mps 770 mmHg 71%
    03:00 +9°C° 0 mm 3 mps 770 mmHg 71%
    04:00 +9°C° 0 mm 3 mps 770 mmHg 70%
    05:00 +9°C° 0 mm 3 mps 770 mmHg 70%
    06:00 +9°C° 0 mm 3 mps 770 mmHg 70%
    07:00 +9°C° 0 mm 3 mps 770 mmHg 68%
    08:00 +10°C° 0 mm 3 mps 770 mmHg 67%
    09:00 +11°C° 0 mm 3 mps 771 mmHg 66%
    10:00 +12°C° 0 mm 3 mps 771 mmHg 61%
    11:00 +14°C° 0 mm 3 mps 770 mmHg 56%
    12:00 +17°C° 0 mm 3 mps 770 mmHg 51%
    13:00 +17°C° 0 mm 3 mps 770 mmHg 51%
    14:00 +18°C° 0 mm 3 mps 769 mmHg 51%
    15:00 +18°C° 0 mm 3 mps 768 mmHg 50%
    16:00 +17°C° 0 mm 2 mps 768 mmHg 55%
    17:00 +16°C° 0 mm 2 mps 768 mmHg 60%
    18:00 +15°C° 0 mm 2 mps 768 mmHg 64%
    19:00 +14°C° 0 mm 2 mps 769 mmHg 65%
    20:00 +14°C° 0 mm 2 mps 769 mmHg 66%
    21:00 +14°C° 0 mm 2 mps 769 mmHg 67%
    22:00 +14°C° 0 mm 2 mps 769 mmHg 69%
    23:00 +13°C° 0 mm 2 mps 769 mmHg 70%

    16 December, Sunday

    Time Temperature Precipitation Wind Pressure Humidity
    00:00 +13°C° 0 mm 1 mps 769 mmHg 71%
    01:00 +13°C° 0 mm 1 mps 768 mmHg 73%
    02:00 +13°C° 0 mm 1 mps 768 mmHg 74%
    03:00 +13°C° 0 mm 1 mps 768 mmHg 76%
    04:00 +13°C° 0 mm 1 mps 768 mmHg 77%
    05:00 +12°C° 0 mm 1 mps 768 mmHg 79%
    06:00 +12°C° 0 mm 1 mps 767 mmHg 80%
    07:00 +13°C° 0 mm 2 mps 768 mmHg 79%
    08:00 +14°C° 0 mm 2 mps 768 mmHg 78%
    09:00 +15°C° 0 mm 2 mps 768 mmHg 77%
    10:00 +16°C° 0 mm 2 mps 768 mmHg 75%
    11:00 +17°C° 0 mm 3 mps 768 mmHg 72%
    12:00 +19°C° 0 mm 4 mps 768 mmHg 70%
    13:00 +19°C° 0 mm 4 mps 768 mmHg 72%
    14:00 +18°C° 0 mm 4 mps 767 mmHg 74%
    15:00 +17°C° 0 mm 5 mps 767 mmHg 76%
    16:00 +18°C° 0.2 mm 4 mps 767 mmHg 80%
    17:00 +17°C° 0.2 mm 4 mps 768 mmHg 84%
    18:00 +15°C° 0.2 mm 4 mps 768 mmHg 88%
    19:00 +15°C° 0.2 mm 4 mps 768 mmHg 89%
    20:00 +15°C° 0.2 mm 4 mps 769 mmHg 89%
    21:00 +15°C° 0.2 mm 4 mps 769 mmHg 89%
    22:00 +14°C° 0 mm 4 mps 770 mmHg 88%
    23:00 +14°C° 0 mm 4 mps 770 mmHg 88%

    17 December, Monday

    Time Temperature Precipitation Wind Pressure Humidity
    00:00 +13°C° 0 mm 4 mps 770 mmHg 87%
    01:00 +12°C° 0 mm 4 mps 770 mmHg 87%
    02:00 +12°C° 0 mm 4 mps 770 mmHg 88%
    03:00 +11°C° 0 mm 3 mps 770 mmHg 88%
    04:00 +11°C° 0 mm 3 mps 770 mmHg 88%
    05:00 +11°C° 0 mm 3 mps 770 mmHg 88%
    06:00 +10°C° 0 mm 3 mps 770 mmHg 88%
    07:00 +11°C° 0 mm 3 mps 770 mmHg 85%
    08:00 +11°C° 0 mm 3 mps 770 mmHg 82%
    09:00 +12°C° 0 mm 3 mps 770 mmHg 79%
    10:00 +13°C° 0 mm 3 mps 770 mmHg 72%
    11:00 +16°C° 0 mm 3 mps 770 mmHg 65%
    12:00 +17°C° 0 mm 4 mps 770 mmHg 58%
    13:00 +18°C° 0 mm 3 mps 770 mmHg 56%
    14:00 +18°C° 0 mm 3 mps 769 mmHg 54%
    15:00 +18°C° 0 mm 3 mps 768 mmHg 52%
    16:00 +17°C° 0 mm 3 mps 769 mmHg 58%
    17:00 +16°C° 0 mm 3 mps 769 mmHg 63%
    18:00 +14°C° 0 mm 2 mps 769 mmHg 68%
    19:00 +14°C° 0 mm 2 mps 769 mmHg 70%
    20:00 +13°C° 0 mm 2 mps 769 mmHg 71%
    21:00 +13°C° 0 mm 2 mps 769 mmHg 72%
    22:00 +13°C° 0 mm 2 mps 769 mmHg 73%
    23:00 +12°C° 0 mm 2 mps 769 mmHg 73%

    18 December, Tuesday

    Time Temperature Precipitation Wind Pressure Humidity
    00:00 +12°C° 0 mm 2 mps 769 mmHg 74%
    01:00 +12°C° 0 mm 2 mps 768 mmHg 75%
    02:00 +10°C° 0 mm 2 mps 768 mmHg 76%
    03:00 +10°C° 0 mm 2 mps 768 mmHg 77%
    04:00 +10°C° 0 mm 3 mps 768 mmHg 78%
    05:00 +10°C° 0 mm 3 mps 767 mmHg 80%
    06:00 +10°C° 0 mm 3 mps 767 mmHg 82%
    07:00 +11°C° 0 mm 3 mps 767 mmHg 82%
    08:00 +12°C° 0 mm 3 mps 768 mmHg 82%
    09:00 +13°C° 0 mm 3 mps 768 mmHg 82%
    10:00 +14°C° 0 mm 3 mps 768 mmHg 76%
    11:00 +17°C° 0 mm 4 mps 767 mmHg 70%
    12:00 +17°C° 0 mm 5 mps 767 mmHg 64%
    13:00 +17°C° 0 mm 5 mps 766 mmHg 63%
    14:00 +17°C° 0 mm 6 mps 766 mmHg 63%
    15:00 +17°C° 0 mm 6 mps 765 mmHg 63%
    16:00 +16°C° 0 mm 6 mps 765 mmHg 70%
    17:00 +15°C° 0 mm 6 mps 765 mmHg 76%
    18:00 +14°C° 0 mm 6 mps 765 mmHg 82%
    19:00 +14°C° 0 mm 6 mps 765 mmHg 83%
    20:00 +14°C° 0 mm 7 mps 765 mmHg 84%
    21:00 +15°C° 0 mm 7 mps 765 mmHg 86%
    22:00 +15°C° 0.3 mm 8 mps 765 mmHg 86%
    23:00 +15°C° 0.3 mm 9 mps 764 mmHg 86%
    Show more